Temp_Advection
nan nan nan nan nan nan nan nan nan nan nan nan nan nan nan nan nan nan nan nan nan nan nan nan nan nan nan nan nan nan nan nan nan nan nan nan nan nan nan nan nan nan nan
nan 0 0 0 0 0 0 0 0 0 0 0 0 0 0 0 0 0 0 0 0 0 0 0 0 0 0 0 0 0 -0 -0 -0 0 0 -0 0 0 0 0 0 0 nan
nan 0 0 1 0 0 0 0 0 0 0 0 0 0 0 0 0 -0 0 0 0 0 0 0 0 0 0 0 0 0 0 0 0 -0 0 0 0 0 0 -0 0 0 nan
nan 1 1 0 1 1 0 0 0 0 0 0 0 0 0 0 0 0 0 0 0 0 0 0 0 0 0 0 0 0 0 0 -0 -0 0 0 0 0 0 -0 0 0 nan
nan 0 1 1 0 0 0 0 0 0 0 0 0 0 0 0 0 0 0 0 0 0 0 0 0 0 0 0 0 0 0 -0 -0 -0 0 0 0 0 0 0 0 0 nan
nan 0 0 0 1 1 0 0 0 0 0 1 1 1 1 0 0 0 0 0 0 0 0 0 0 1 0 0 0 -0 0 -0 -0 -0 0 -0 -0 -0 -0 0 0 0 nan
nan 0 0 1 1 1 1 1 0 0 1 1 0 0 0 0 0 0 0 0 0 0 0 0 1 0 0 0 0 0 -0 -0 -0 0 -0 0 -0 0 -0 0 -0 0 nan
nan 1 1 1 2 2 1 0 0 1 1 0 0 0 0 0 -0 -0 -0 0 0 0 0 0 0 0 0 0 0 0 -0 -0 0 0 0 0 -0 0 0 0 0 0 nan
nan 0 1 1 1 0 1 -0 -0 1 0 0 -0 0 -0 -0 -1 -0 0 1 0 0 0 -0 -0 0 0 -0 0 -0 -0 0 0 0 -0 -0 -0 0 0 0 0 0 nan
nan 1 1 0 -0 0 0 0 0 0 0 1 -0 -0 -1 -0 0 -0 0 0 1 0 -0 -0 -0 0 -0 0 0 0 -0 0 0 0 0 -0 -0 0 0 0 0 0 nan
nan 2 2 1 -1 -1 0 1 0 0 0 -1 -0 2 0 0 -0 0 0 -0 -0 -1 -1 -0 -0 0 0 0 0 -0 -0 0 0 1 0 -0 0 0 0 0 0 0 nan
nan 1 1 1 -0 0 1 0 0 -0 1 1 1 -1 -1 0 -0 -0 -0 -0 -1 0 0 -0 -0 0 0 0 0 0 0 0 0 0 0 -0 -0 0 0 0 0 0 nan
nan 1 1 -0 -0 1 1 1 0 0 0 0 0 -1 -0 1 0 0 -0 -0 1 0 -1 -0 -0 0 0 -0 0 1 1 0 0 0 -0 -0 -0 0 0 0 0 0 nan
nan 0 0 1 1 0 1 1 0 -0 0 1 0 0 1 -0 -0 0 -0 1 0 -1 -1 -0 1 1 0 0 0 1 1 0 0 0 0 -0 -0 0 0 0 0 0 nan
nan 0 0 0 -0 -0 1 1 -0 0 1 0 0 -0 -0 -1 -0 0 -0 1 1 0 -0 -1 -1 0 1 1 1 1 0 0 0 0 0 -0 0 0 0 0 0 0 nan
nan 0 0 -0 -0 -0 0 0 -0 0 0 0 0 0 -0 -1 -0 0 1 1 1 0 -0 -1 -0 0 1 1 1 1 1 0 0 1 0 0 -0 0 0 0 0 -0 nan
nan -0 0 -0 -0 -0 0 -0 -0 0 0 -0 1 0 -0 -0 -0 -0 1 1 1 1 1 0 -0 0 0 1 2 1 0 0 0 1 0 0 0 0 -0 -0 -1 -0 nan
nan -0 0 0 0 -0 -0 -0 -0 0 0 -0 0 0 -0 0 -0 -0 0 0 1 1 1 0 -0 0 0 1 1 1 1 0 0 1 0 0 0 -0 0 0 0 0 nan
nan 0 -0 -0 0 0 -0 -1 -0 -0 0 -0 0 1 0 -0 -0 1 0 0 1 1 0 -0 0 1 1 1 1 1 1 0 1 0 0 0 0 1 1 1 -0 0 nan
nan 0 -0 -0 -0 -0 0 0 -0 -0 -0 -0 0 0 -0 -0 0 1 0 -0 0 1 0 0 0 1 0 1 1 1 2 1 1 1 1 0 0 1 1 -0 -0 0 nan
nan -0 -0 -0 -0 0 1 0 -0 -1 -1 -1 0 0 -0 -0 0 0 -0 -0 1 1 0 0 0 0 1 1 1 3 2 1 2 2 1 1 1 1 1 0 1 2 nan
nan -0 -0 -1 -0 0 0 0 -1 -1 -0 -0 -0 -1 0 1 0 0 0 1 1 0 0 1 1 0 1 2 2 2 1 2 0 0 0 3 3 3 2 3 3 3 nan
nan -0 -0 -1 -1 -0 0 0 -0 -0 -0 -0 -0 -0 0 0 1 1 1 0 0 1 0 0 0 0 0 0 2 1 -0 0 1 2 3 3 3 3 3 3 2 2 nan
nan -1 -1 -1 -1 -0 0 0 0 -0 -1 -0 -0 -0 -0 0 1 0 1 0 0 0 0 -0 -0 -0 0 0 0 1 4 5 4 3 3 1 3 3 3 2 2 2 nan
nan -1 -1 -1 -1 -1 -0 -0 -0 0 0 -1 -1 -0 0 0 -0 0 0 0 -0 -0 0 0 -0 -0 0 1 2 3 3 1 1 2 2 2 2 2 3 3 2 1 nan
nan nan nan nan nan nan nan nan nan nan nan nan nan nan nan nan nan nan nan nan nan nan nan nan nan nan nan nan nan nan nan nan nan nan nan nan nan nan nan nan nan nan nan
Wind_Speed
28 28 27 27 26 24 19 19 20 22 21 20 18 17 16 15 14 16 16 15 16 11 10 8 7 9 10 9 9 11 13 14 12 15 15 15 16 16 17 17 17 16 15
30 30 29 29 28 27 23 21 22 23 24 22 19 18 18 17 15 17 16 21 18 14 11 9 5 11 10 12 12 13 15 14 14 15 15 15 16 16 17 17 15 14 14
33 32 31 31 30 29 26 24 25 25 25 24 22 20 19 18 15 15 12 20 18 16 13 10 6 10 10 13 13 15 16 16 15 15 15 16 17 17 17 16 15 14 13
35 34 34 34 32 30 29 28 27 27 27 25 24 22 20 19 18 16 13 16 16 19 16 12 9 9 10 13 15 16 17 18 16 16 16 16 17 17 17 15 15 13 12
38 37 36 36 36 33 32 32 30 29 29 28 25 23 21 20 20 18 18 18 20 21 19 16 12 10 13 15 17 18 17 17 17 16 16 16 17 17 17 16 14 13 11
40 38 37 35 34 36 35 34 33 30 30 29 27 25 23 22 21 22 21 19 20 23 23 19 15 14 15 17 16 17 17 17 19 18 18 18 18 18 16 16 15 13 11
35 35 34 33 33 34 37 36 34 31 30 29 27 26 24 24 23 24 25 23 21 24 25 22 19 15 16 19 19 18 19 19 20 20 18 19 19 18 18 16 14 13 11
29 30 31 33 34 35 35 34 36 34 32 31 32 27 21 27 28 26 25 24 25 25 29 26 23 19 17 17 22 21 21 21 21 21 20 20 19 20 19 17 16 14 12
29 28 29 31 32 33 35 34 34 36 37 37 34 26 13 14 24 29 27 28 25 26 29 27 25 22 20 19 22 22 22 21 24 22 22 21 20 21 19 18 17 15 13
40 31 28 31 27 31 33 33 35 36 36 36 35 40 26 18 13 12 24 30 28 28 31 31 29 27 23 22 23 25 25 25 24 24 24 22 22 22 20 19 18 15 13
39 36 31 28 26 37 37 33 35 34 38 37 37 41 41 30 25 17 13 19 28 31 31 32 33 31 27 25 26 27 27 27 27 27 25 22 23 21 21 20 17 15 16
35 35 31 38 36 41 40 35 35 35 39 35 36 37 41 37 36 23 18 17 22 28 35 35 38 35 32 29 27 28 28 29 31 30 27 23 21 22 21 19 18 19 16
29 32 32 37 38 38 36 35 37 35 37 39 36 38 40 43 34 32 30 16 19 24 27 37 40 39 36 34 31 29 29 30 33 32 30 26 24 23 23 21 21 20 22
19 23 27 32 33 33 33 34 35 36 37 38 36 39 38 45 41 38 38 28 19 23 29 32 33 41 42 39 35 32 33 32 33 34 32 31 28 27 26 25 25 25 27
16 19 23 25 27 32 33 34 33 32 36 37 37 37 39 39 40 41 40 38 32 18 30 33 34 32 38 44 40 35 36 35 35 35 35 32 32 32 30 29 29 29 29
15 17 18 19 23 27 30 32 34 33 34 35 36 36 39 41 38 35 38 36 38 34 23 27 33 33 33 40 46 42 39 38 38 38 37 36 37 34 33 32 32 31 28
11 14 17 18 20 23 26 29 31 32 34 36 34 36 34 38 39 38 35 32 34 38 36 30 35 33 33 37 44 44 43 40 42 41 40 39 38 37 37 36 33 30 30
10 12 14 20 21 22 24 28 30 33 34 36 36 35 36 35 38 37 34 32 34 38 35 36 37 38 38 39 42 48 46 44 44 43 43 41 39 38 38 36 35 34 33
12 14 16 17 20 22 21 24 26 30 32 36 35 36 37 36 38 39 32 31 35 36 30 39 37 38 41 42 45 49 50 50 48 45 45 43 40 40 39 39 37 37 36
13 14 15 18 18 22 24 23 22 25 29 32 34 34 35 38 36 37 32 33 35 34 29 37 35 43 42 44 49 51 54 51 50 49 48 47 44 43 43 42 40 40 41
13 14 15 17 18 19 21 24 24 26 30 31 35 32 31 35 37 32 31 32 34 32 35 33 39 43 42 44 50 52 52 55 51 51 50 50 48 47 46 46 44 43 43
13 13 14 16 17 17 20 22 25 27 26 28 38 33 30 32 34 32 33 33 32 32 35 35 37 40 40 43 49 51 52 52 48 48 51 53 53 51 48 46 46 43 38
15 15 15 15 16 18 19 22 25 30 30 30 30 35 38 37 32 31 32 31 31 32 35 36 34 39 40 39 47 51 57 60 61 59 55 49 48 46 44 40 39 37 33
16 18 17 16 15 17 19 21 24 31 33 32 30 32 36 35 34 31 33 34 35 34 33 33 33 35 31 32 35 41 47 58 51 50 53 52 48 44 41 37 34 31 27
18 17 17 18 17 16 18 21 24 24 29 31 34 33 31 32 34 33 31 32 31 29 31 32 32 34 31 32 36 43 48 53 49 45 53 47 50 43 38 34 31 27 26
21 21 20 19 18 19 18 21 22 24 27 32 34 31 32 30 33 31 35 33 33 31 29 30 30 36 35 39 41 38 44 54 54 42 53 50 49 48 30 31 29 26 22
Wind_Direction
214 214 214 215 215 215 216 213 212 210 211 213 217 217 219 224 216 223 246 228 222 217 203 200 203 205 201 208 208 197 175 180 184 170 169 161 155 152 149 147 144 145 140
218 218 219 219 219 220 221 217 217 218 217 221 224 226 230 228 223 240 255 220 219 223 211 205 220 201 212 213 212 201 183 187 185 176 174 166 160 158 156 155 150 149 144
223 221 221 223 222 222 221 219 217 220 224 225 231 232 234 228 225 240 249 214 223 221 221 216 220 210 221 214 210 200 189 190 194 189 182 169 165 165 162 160 156 156 158
229 228 224 225 224 222 223 222 221 221 224 227 231 233 235 231 227 234 227 221 229 225 223 224 218 214 223 222 204 205 202 197 192 201 186 174 175 171 169 167 165 168 169
231 232 231 228 227 222 223 226 226 224 225 229 230 233 237 234 234 234 234 225 227 229 227 228 221 218 220 225 212 208 203 191 193 205 191 186 185 178 177 178 174 179 181
234 235 237 237 232 225 225 226 228 228 229 229 231 232 234 236 237 236 240 229 227 231 228 228 224 222 222 218 221 209 208 198 199 209 208 198 193 186 186 186 184 188 186
239 238 240 240 238 229 228 227 228 230 232 226 226 230 235 237 239 239 241 244 242 229 226 231 227 215 221 216 217 220 208 203 206 214 210 201 193 191 196 192 192 194 192
237 238 239 240 238 232 228 227 228 228 230 233 216 223 227 237 239 241 245 245 248 236 221 225 227 226 215 211 215 221 208 205 213 215 213 204 199 200 200 198 197 197 194
237 241 243 243 244 239 233 226 228 227 227 230 224 213 203 217 233 244 243 240 237 231 225 223 226 228 224 218 216 215 211 214 216 216 215 208 205 207 204 203 199 196 199
242 243 257 250 256 258 236 230 234 233 231 233 227 227 225 218 199 223 240 239 240 231 227 227 225 228 227 227 218 218 213 213 215 214 218 211 210 210 207 201 199 203 211
232 236 240 252 240 254 247 235 236 239 239 235 234 228 227 228 225 219 217 233 230 229 227 227 227 228 229 231 226 222 221 216 214 217 220 218 213 214 206 202 202 210 216
227 221 235 232 233 244 246 244 243 241 240 242 242 234 230 222 222 219 221 230 238 235 229 230 230 229 230 233 232 227 222 220 215 218 216 217 217 211 205 205 214 216 225
238 233 224 228 234 237 243 246 245 246 243 240 238 237 235 236 233 228 226 219 231 231 237 238 236 237 233 232 233 230 224 222 221 217 219 209 213 208 210 214 218 225 234
241 239 233 234 237 242 247 247 245 247 245 244 243 237 241 235 239 237 234 214 216 237 244 245 245 239 234 234 232 230 226 222 221 224 222 212 211 214 218 223 221 229 236
238 246 245 244 243 243 245 245 246 243 244 245 243 241 244 246 242 242 237 238 231 222 237 247 247 251 242 231 230 227 227 224 223 223 224 216 214 220 223 223 228 232 239
242 246 251 253 246 244 242 242 241 243 245 243 243 243 244 242 244 244 239 237 240 240 238 255 256 254 254 241 233 226 224 224 223 223 222 222 218 221 226 228 233 238 244
254 256 257 255 254 249 242 242 244 244 244 244 242 244 243 241 244 241 235 242 244 241 242 247 252 264 251 247 235 227 223 220 221 222 223 225 226 225 229 233 237 242 244
279 276 272 263 258 258 255 244 245 243 243 244 243 242 241 243 242 242 232 245 244 240 243 242 254 253 245 245 241 230 226 221 220 221 222 224 226 230 232 234 237 242 244
281 277 276 273 262 259 255 253 251 247 246 244 245 245 243 242 244 234 238 244 243 247 244 242 247 252 244 234 235 229 228 225 219 219 220 223 226 230 232 235 239 245 245
276 272 273 273 274 260 255 251 263 257 253 252 244 246 244 242 241 233 240 244 246 242 246 257 249 248 246 244 234 225 221 218 219 216 217 220 223 228 230 232 238 242 242
297 293 284 272 269 274 263 255 253 256 261 261 242 246 246 242 240 241 239 235 241 240 253 246 239 245 247 240 236 226 220 216 209 212 212 214 219 223 225 231 238 240 236
299 300 295 283 276 269 265 251 252 252 260 255 252 236 239 240 238 238 235 239 243 240 238 240 246 251 250 252 235 226 218 206 197 206 206 207 213 215 221 226 230 231 235
309 311 304 296 281 274 270 262 250 251 253 255 260 253 242 240 236 234 236 241 237 242 246 249 250 249 257 256 250 232 224 218 211 207 207 204 206 212 217 218 223 227 226
311 312 310 305 293 281 275 269 259 248 247 253 255 262 250 251 232 236 232 236 241 240 242 245 246 254 262 265 266 257 241 218 213 208 204 201 208 210 212 216 220 221 220
313 307 302 297 300 294 284 279 272 265 251 253 251 255 256 236 246 244 228 229 233 234 236 243 249 256 261 261 261 241 228 217 209 209 203 208 204 204 204 208 210 210 215
314 310 305 299 294 296 297 287 283 272 262 249 249 252 251 253 232 235 229 221 225 232 237 241 244 247 254 256 258 259 250 227 215 202 206 204 209 204 191 204 207 209 207
Height
1520 1522 1524 1526 1528 1531 1533 1535 1537 1538 1541 1543 1545 1548 1549 1551 1552 1553 1554 1556 1559 1560 1560 1561 1562 1563 1565 1566 1567 1568 1569 1570 1570 1571 1572 1574 1576 1578 1580 1582 1583 1585 1586
1514 1517 1519 1522 1524 1527 1530 1532 1534 1536 1538 1541 1542 1545 1547 1548 1550 1551 1551 1553 1556 1558 1558 1560 1561 1562 1563 1564 1566 1567 1568 1569 1570 1571 1573 1574 1577 1579 1580 1582 1583 1586 1587
1507 1510 1513 1516 1519 1522 1525 1529 1531 1533 1536 1538 1539 1541 1543 1545 1547 1548 1548 1551 1552 1556 1557 1558 1559 1560 1561 1563 1563 1566 1567 1568 1570 1571 1572 1574 1577 1579 1580 1582 1584 1586 1587
1502 1505 1508 1510 1512 1517 1521 1523 1526 1528 1531 1534 1536 1538 1540 1541 1544 1545 1546 1548 1550 1554 1556 1557 1558 1559 1560 1561 1562 1563 1565 1566 1569 1571 1572 1574 1577 1578 1580 1582 1584 1586 1587
1495 1498 1501 1505 1509 1511 1513 1517 1520 1523 1527 1530 1533 1534 1536 1538 1540 1542 1544 1546 1549 1550 1552 1554 1555 1556 1558 1559 1560 1561 1563 1565 1568 1570 1572 1574 1576 1578 1579 1581 1583 1585 1587
1490 1493 1495 1498 1501 1505 1507 1510 1514 1518 1522 1525 1529 1531 1532 1534 1536 1538 1540 1542 1544 1547 1549 1550 1552 1553 1555 1557 1558 1559 1561 1563 1566 1568 1570 1572 1575 1577 1578 1580 1582 1584 1586
1485 1487 1489 1491 1495 1498 1501 1504 1508 1512 1516 1520 1524 1526 1528 1530 1532 1533 1535 1537 1538 1542 1544 1546 1548 1550 1551 1554 1556 1557 1559 1562 1564 1566 1568 1570 1572 1574 1577 1578 1580 1583 1585
1480 1482 1483 1485 1487 1491 1494 1496 1501 1503 1508 1513 1517 1521 1524 1526 1526 1527 1528 1530 1533 1535 1538 1541 1544 1546 1549 1550 1552 1554 1556 1559 1562 1564 1566 1567 1570 1572 1574 1576 1578 1581 1583
1475 1476 1480 1482 1484 1487 1488 1490 1494 1495 1498 1503 1508 1512 1515 1515 1519 1521 1522 1524 1527 1530 1532 1536 1539 1541 1544 1546 1548 1551 1553 1556 1559 1561 1563 1565 1567 1570 1571 1573 1576 1578 1580
1464 1465 1475 1479 1480 1485 1485 1484 1488 1490 1491 1494 1501 1503 1506 1505 1511 1515 1515 1518 1521 1523 1526 1530 1533 1536 1538 1541 1543 1546 1549 1552 1555 1558 1560 1562 1565 1567 1569 1571 1573 1575 1577
1457 1461 1467 1463 1475 1478 1480 1480 1481 1485 1487 1487 1489 1494 1500 1502 1504 1506 1508 1510 1514 1517 1520 1524 1527 1530 1532 1535 1538 1541 1544 1548 1551 1554 1556 1559 1562 1564 1566 1568 1570 1572 1574
1449 1453 1454 1460 1463 1467 1471 1473 1475 1478 1480 1481 1482 1487 1489 1492 1493 1500 1503 1504 1506 1509 1513 1516 1518 1522 1526 1529 1532 1535 1539 1543 1546 1549 1552 1555 1558 1561 1563 1565 1567 1569 1570
1446 1449 1448 1452 1455 1457 1462 1464 1466 1469 1472 1473 1475 1478 1480 1483 1487 1490 1496 1499 1499 1502 1505 1508 1511 1515 1519 1522 1526 1529 1533 1536 1540 1544 1547 1551 1553 1556 1559 1562 1563 1565 1566
1443 1444 1443 1445 1448 1451 1454 1456 1458 1460 1463 1465 1468 1470 1473 1476 1481 1484 1487 1492 1493 1495 1496 1499 1503 1505 1510 1514 1518 1522 1526 1530 1534 1537 1541 1545 1548 1551 1554 1557 1558 1559 1560
1438 1438 1437 1438 1441 1443 1445 1447 1450 1450 1454 1457 1459 1461 1465 1468 1471 1475 1479 1482 1485 1488 1487 1490 1494 1498 1501 1505 1509 1514 1519 1523 1527 1531 1535 1539 1543 1545 1548 1550 1551 1553 1554
1431 1431 1432 1433 1434 1436 1437 1440 1441 1444 1446 1448 1450 1454 1456 1460 1463 1467 1471 1475 1478 1481 1482 1484 1486 1490 1495 1497 1500 1505 1510 1514 1519 1524 1528 1532 1535 1539 1541 1543 1545 1547 1548
1426 1425 1427 1427 1430 1431 1432 1433 1433 1435 1438 1440 1442 1445 1447 1452 1454 1458 1462 1467 1469 1473 1475 1476 1478 1483 1486 1489 1492 1496 1499 1504 1510 1515 1520 1524 1528 1531 1534 1536 1538 1540 1542
1419 1420 1422 1423 1424 1425 1426 1426 1427 1428 1430 1432 1435 1437 1440 1444 1446 1450 1454 1458 1461 1464 1467 1469 1471 1474 1477 1479 1483 1486 1490 1495 1500 1506 1511 1516 1520 1524 1526 1529 1531 1532 1535
1415 1416 1417 1418 1418 1420 1420 1420 1420 1421 1422 1424 1426 1428 1431 1434 1438 1441 1444 1449 1453 1456 1460 1460 1462 1465 1466 1468 1472 1476 1479 1485 1489 1496 1502 1507 1511 1515 1519 1521 1524 1526 1528
1414 1414 1414 1413 1413 1413 1413 1414 1413 1413 1414 1415 1417 1419 1421 1424 1428 1433 1437 1441 1444 1447 1451 1452 1454 1455 1458 1461 1463 1464 1466 1472 1479 1485 1491 1497 1501 1506 1509 1513 1516 1518 1520
1409 1409 1408 1409 1408 1407 1407 1408 1406 1407 1407 1409 1412 1413 1412 1416 1421 1424 1428 1431 1435 1439 1442 1442 1444 1447 1449 1451 1452 1455 1459 1462 1466 1472 1479 1485 1490 1496 1499 1504 1508 1510 1512
1406 1405 1404 1403 1402 1402 1401 1400 1400 1399 1399 1401 1404 1403 1405 1408 1412 1416 1420 1424 1427 1430 1430 1433 1436 1437 1439 1443 1444 1445 1450 1454 1458 1464 1469 1473 1479 1484 1489 1494 1497 1501 1504
1400 1400 1399 1396 1396 1394 1393 1392 1391 1390 1390 1391 1392 1394 1397 1400 1404 1407 1412 1416 1419 1420 1422 1425 1427 1429 1432 1435 1437 1437 1439 1444 1444 1447 1456 1465 1471 1477 1481 1485 1489 1492 1496
1395 1394 1392 1390 1388 1387 1386 1385 1384 1384 1384 1384 1385 1386 1389 1390 1395 1399 1401 1407 1410 1412 1413 1415 1419 1422 1426 1428 1427 1428 1432 1438 1441 1444 1449 1453 1463 1469 1474 1478 1483 1486 1490
1391 1389 1388 1386 1382 1381 1379 1378 1376 1375 1375 1376 1377 1378 1380 1384 1386 1390 1393 1396 1401 1403 1404 1407 1411 1414 1417 1418 1420 1422 1424 1430 1435 1438 1441 1445 1452 1462 1468 1471 1477 1480 1483
1387 1384 1382 1380 1377 1374 1372 1370 1370 1368 1367 1368 1369 1369 1371 1374 1378 1381 1387 1386 1390 1393 1396 1399 1402 1404 1407 1409 1410 1412 1415 1418 1424 1430 1433 1438 1443 1452 1463 1467 1470 1475 1478